This is the latest recevied weather packets stored in our database for station/object OK1TOM-6. If no packets are shown the sender has not sent any weather packets the latest 10 day(s).
| Time | Temp. | Humidity | Pressure | Rain* | Wind** | Luminosity | Snow |
|---|---|---|---|---|---|---|---|
| 1778022365 | 8.89° C | 98% | 1009.4 hPa | 0 mm | - | - | - |
| 1778021761 | 8.89° C | 98% | 1009.1 hPa | 0 mm | - | - | - |
| 1778021158 | 9.44° C | 98% | 1009.5 hPa | 0 mm | - | - | - |
| 1778020555 | 9.44° C | 98% | 1009.5 hPa | 0 mm | - | - | - |
| 1778019951 | 10° C | 98% | 1009.2 hPa | 0 mm | - | - | - |
| 1778019347 | 10° C | 98% | 1009.3 hPa | 0 mm | - | - | - |
| 1778018744 | 10° C | 98% | 1009.4 hPa | 0.25 mm | - | - | - |
| 1778018140 | 10° C | 98% | 1009.4 hPa | 0.25 mm | - | - | - |
| 1778017537 | 10° C | 98% | 1009.5 hPa | 0.25 mm | - | - | - |
| 1778016934 | 10° C | 98% | 1009.6 hPa | 0.25 mm | - | - | - |
| 1778016330 | 10° C | 98% | 1009.7 hPa | 0.25 mm | - | - | - |
| 1778015727 | 10° C | 98% | 1009.7 hPa | 0.25 mm | - | - | - |
| 1778015123 | 9.44° C | 98% | 1009.6 hPa | 0 mm | - | - | - |
| 1778014520 | 10° C | 98% | 1009.5 hPa | 0 mm | - | - | - |
| 1778013917 | 10° C | 98% | 1009.6 hPa | 0.51 mm | - | - | - |
| 1778013373 | 10° C | 98% | 1009.7 hPa | 1.27 mm | - | - | - |
| 1778012770 | 10° C | 97% | 1009.6 hPa | 2.03 mm | - | - | - |
| 1778012167 | 10° C | 97% | 1009.7 hPa | 3.81 mm | - | - | - |
| 1778011563 | 10° C | 97% | 1009.8 hPa | 7.87 mm | - | - | - |
| 1778010960 | 10.56° C | 97% | 1009.9 hPa | 12.95 mm | - | - | - |
| 1778010356 | 10.56° C | 97% | 1009.7 hPa | 17.53 mm | - | - | - |
| 1778009753 | 10.56° C | 97% | 1009.8 hPa | 16.76 mm | - | - | - |
| 1778009149 | 10° C | 96% | 1009.6 hPa | 16 mm | - | - | - |
| 1778008546 | 10° C | 95% | 1009.8 hPa | 14.22 mm | - | - | - |
| 1778007942 | 10° C | 93% | 1009.9 hPa | 10.16 mm | - | - | - |
* Rain latest hour (hover to see other rain measurements)
** Current wind speed in m/s (hover to see current wind gust speed)